EW2407 Weather Reports


time (UTC)temp
F
wind
direction
speed
knots
gust
knots
rain 1hr
in
rain 24hr
in
rain mn
in
humidity
%
barometer
mb
20260505191543 47 360 1.7 5.2 0.00 0.00 0.00 84 1011.4
20260505190042 48 360 1.7 5.2 0.00 0.00 0.00 82 1011.4
20260505184540 49 360 0.9 4.3 0.00 0.00 0.00 81 1011.3
20260505183040 51 360 1.7 6.1 0.00 0.00 0.00 79 1011.3
20260505181540 52 360 0.9 6.1 0.00 0.00 0.00 78 1011.3
20260505180043 52 360 3.5 7.0 0.00 0.00 0.00 76 1011.3
20260505174539 53 360 1.7 7.8 0.00 0.00 0.00 75 1011.3
20260505173036 53 360 3.5 8.7 0.00 0.00 0.00 74 1011.4
20260505171545 53 360 3.5 7.8 0.00 0.00 0.00 71 1011.3
20260505170038 53 360 3.5 9.6 0.00 0.00 0.00 71 1011.3
20260505164539 53 360 3.5 11.3 0.00 0.00 0.00 71 1011.4
20260505163040 52 360 7.0 12.2 0.00 0.00 0.00 69 1011.4
20260505161533 52 360 7.0 12.2 0.00 0.00 0.00 70 1011.5
20260505153037 51 360 12.2 14.8 0.00 0.00 0.00 55 1011.5
20260505151529 52 360 12.2 13.9 0.00 0.00 0.00 61 1011.6
20260505130116 53 360 8.7 12.2 0.00 0.00 0.00 59 1011.7
20260505124507 52 360 9.6 13.9 0.00 0.00 0.00 61 1011.6
20260505123005 53 360 7.8 13.0 0.00 0.00 0.00 66 1011.7
20260505121504 53 360 7.8 12.2 0.00 0.00 0.00 67 1011.7
20260505120002 52 360 7.8 13.0 0.00 0.00 0.00 68 1011.7
20260505114502 52 360 7.8 13.9 0.00 0.00 0.00 66 1011.7
20260505113108 52 360 8.7 13.0 0.00 0.00 0.00 65 1011.7
20260505111602 52 360 9.6 13.9 0.00 0.00 0.00 67 1011.7
20260505110108 52 360 7.0 12.2 0.00 0.00 0.00 67 1011.7
20260505101550 52 360 6.1 10.4 0.00 0.00 0.00 68 1011.7
20260505100047 51 360 7.0 11.3 0.00 0.00 0.00 67 1011.8
20260505094548 51 360 7.0 12.2 0.00 0.00 0.00 70 1011.7
20260505093043 51 360 7.0 13.0 0.00 0.00 0.00 68 1011.7
20260505091551 51 360 7.8 13.0 0.00 0.00 0.00 71 1011.7
20260505090045 51 360 7.8 13.0 0.00 0.00 0.00 73 1011.7
20260505084558 51 360 8.7 13.9 0.00 0.00 0.00 74 1011.5
20260505083057 51 360 10.4 13.9 0.00 0.00 0.00 75 1011.5
20260505081552 51 360 7.8 12.2 0.00 0.00 0.00 77 1011.3
20260505080044 51 360 10.4 13.9 0.00 0.00 0.00 76 1011.3
20260505074534 51 360 7.0 13.0 0.00 0.00 0.00 78 1011.3
20260505073047 50 360 10.4 13.9 0.00 0.00 0.00 78 1011.2
20260505071543 50 360 10.4 14.8 0.00 0.00 0.00 80 1011.2
20260505070040 49 360 7.8 13.0 0.00 0.00 0.00 81 1011.1
20260505064535 50 360 7.8 14.8 0.00 0.00 0.00 80 1011.0
20260505063037 50 360 7.8 12.2 0.00 0.00 0.00 77 1011.0
20260505061531 49 360 7.0 11.3 0.00 0.00 0.00 79 1011.0
20260505060050 49 360 7.8 13.9 0.00 0.00 0.00 82 1010.9
20260505054526 48 360 10.4 13.9 0.00 0.01 0.00 81 1010.9
20260505053025 48 360 8.7 14.8 0.00 0.01 0.00 83 1010.9
20260505051525 48 360 7.8 13.9 0.00 0.01 0.00 82 1010.9
20260505050123 48 360 7.0 14.8 0.00 0.01 0.00 84 1010.9
20260505041520 48 360 11.3 13.9 0.00 0.02 0.00 84 1010.7
20260505040023 48 360 10.4 13.9 0.00 0.02 0.00 86 1010.7
20260505034516 48 360 11.3 14.8 0.00 0.02 0.00 85 1010.6
20260505033015 48 360 7.0 12.2 0.00 0.02 0.00 83 1010.6
20260505031512 48 360 10.4 13.9 0.00 0.02 0.00 83 1010.6
20260505030011 48 360 10.4 13.9 0.00 0.02 0.00 84 1010.7
20260505024509 48 360 7.0 12.2 0.00 0.03 0.00 83 1010.7
20260505023008 48 360 9.6 15.6 0.00 0.03 0.00 83 1010.8
20260505021507 48 360 7.8 13.9 0.00 0.03 0.00 82 1010.9
20260505020005 48 360 7.8 15.6 0.00 0.03 0.00 83 1010.9
20260505014505 48 360 9.6 15.6 0.00 0.04 0.00 84 1011.0
20260505013002 48 360 9.6 14.8 0.00 0.04 0.00 84 1011.0
20260505011601 48 360 9.6 13.9 0.00 0.04 0.00 84 1011.0
20260505010104 48 360 9.6 15.6 0.00 0.04 0.00 84 1011.1
20260505004556 48 360 8.7 15.6 0.00 0.06 0.00 83 1011.1
20260505003058 48 360 10.4 14.8 0.00 0.06 0.00 83 1011.1
20260505001555 48 360 8.7 17.4 0.00 0.06 0.00 83 1011.1
20260505000053 48 360 11.3 16.5 0.00 0.06 0.00 83 1011.1
20260504234646 48 360 8.7 14.8 0.00 0.11 0.00 82 1011.3
20260504233042 49 360 12.2 15.6 0.00 0.11 0.00 83 1011.2
20260504231540 49 360 9.6 14.8 0.00 0.11 0.00 83 1011.3
20260504230038 49 360 11.3 14.8 0.00 0.11 0.00 84 1011.3
20260504224535 49 360 8.7 14.8 0.00 0.19 0.00 84 1011.4
20260504223046 49 360 7.8 15.6 0.00 0.19 0.00 85 1011.5
20260504221531 49 360 9.6 15.6 0.00 0.19 0.00 84 1011.4
20260504220031 50 360 9.6 13.9 0.00 0.19 0.00 84 1011.5
20260504214526 50 360 8.7 13.9 0.00 0.22 0.19 83 1011.5
20260504213029 50 360 8.7 13.9 0.00 0.22 0.19 83 1011.5
20260504211535 50 360 7.8 13.9 0.00 0.22 0.19 83 1011.5
20260504210025 50 360 10.4 15.6 0.00 0.22 0.19 83 1011.5
20260504204524 51 360 9.6 13.9 0.00 0.24 0.19 83 1011.5
20260504203024 50 360 7.0 11.3 0.00 0.24 0.19 86 1011.4
20260504201523 51 360 3.5 7.8 0.00 0.24 0.19 84 1011.4
20260504200023 51 360 7.0 9.6 0.00 0.24 0.19 83 1011.4
20260504194521 51 360 8.7 10.4 0.00 0.24 0.19 82 1011.3
20260504193022 51 360 8.7 13.0 0.00 0.24 0.19 81 1011.4